Overview Statistics Trail Chart Weather Telemetry Raw packets
 

This is the latest recevied weather packets stored in our database for station/object JH7UAX-10. If no packets are shown the sender has not sent any weather packets the latest 10 day(s).

<< 1 2 3 4 5 6 >>
Time Temp. Humidity Pressure Rain* Wind** Luminosity Snow
1788529455 17.22° C 92% 1026.5 hPa 0 mm - - -
1788528554 17.22° C 93% 1026.5 hPa 0 mm - - -
1788527655 17.22° C 92% 1026.5 hPa 0 mm - - -
1788526756 17.22° C 92% 1026.4 hPa 0 mm - - -
1788525855 17.22° C 92% 1026.3 hPa 0 mm - - -
1788524954 17.22° C 92% 1026.4 hPa 0 mm - - -
1788524055 17.22° C 91% 1026.4 hPa 0 mm - - -
1788523154 17.78° C 90% 1026.3 hPa 0 mm - - -
1788521355 18.33° C 88% 1026.4 hPa 0 mm - - -
1788520455 18.33° C 87% 1026.3 hPa 0 mm - - -
1788518654 18.89° C 85% 1026 hPa 0 mm - - -
1788517755 18.89° C 85% 1025.8 hPa 0 mm - - -
1788515954 18.89° C 84% 1025.5 hPa 0 mm - - -
1788515054 19.44° C 84% 1025.3 hPa 0 mm - - -
1788514155 20° C 83% 1025.3 hPa 0 mm - - -
1788513255 20.56° C 82% 1025 hPa 0 mm - - -
1788512354 20.56° C 81% 1025 hPa 0 mm - - -
1788510554 21.67° C 78% 1024.8 hPa 0 mm - - -
1788508753 22.78° C 77% 1024.8 hPa 0 mm - - -
1788507855 22.22° C 78% 1024.6 hPa 0 mm - - -
1788506054 22.78° C 78% 1024.5 hPa 0 mm - - -
1788505155 23.33° C 74% 1024.4 hPa 0 mm - - -
1788501555 24.44° C 73% 1024.2 hPa 0 mm - - -
1788500654 24.44° C 72% 1024 hPa 0 mm - - -
1788499755 23.89° C 75% 1023.8 hPa 0 mm - - -

* Rain latest hour (hover to see other rain measurements)
** Current wind speed in m/s (hover to see current wind gust speed)